| time (UTC) | temp C | wind direction | speed KPH | gust KPH | rain 1hr cm | rain 24hr cm | rain mn cm | humidity % | barometer mb |
| 20260831194322 | 25 | 159 | 1.6 | 3.2 | 0.00 | 0.00 | 0.00 | 35 | 1026.0 |
| 20260831193823 | 25 | 315 | 0.0 | 1.6 | 0.00 | 0.00 | 0.00 | 34 | 1025.0 |
| 20260831193323 | 25 | 348 | 1.6 | 3.2 | 0.00 | 0.00 | 0.00 | 35 | 1025.0 |
| 20260831192823 | 25 | 317 | 1.6 | 4.8 | 0.00 | 0.00 | 0.00 | 36 | 1026.0 |
| 20260831192323 | 25 | 329 | 1.6 | 3.2 | 0.00 | 0.00 | 0.00 | 35 | 1026.0 |
| 20260831191823 | 24 | 136 | 1.6 | 4.8 | 0.00 | 0.00 | 0.00 | 35 | 1026.0 |
| 20260831191324 | 24 | 170 | 0.0 | 3.2 | 0.00 | 0.00 | 0.00 | 34 | 1026.0 |
| 20260831190822 | 24 | 293 | 1.6 | 3.2 | 0.00 | 0.00 | 0.00 | 33 | 1026.0 |
| 20260831190322 | 24 | 218 | 3.2 | 3.2 | 0.00 | 0.00 | 0.00 | 34 | 1026.0 |
| 20260831185822 | 24 | 142 | 3.2 | 4.8 | 0.00 | 0.00 | 0.00 | 35 | 1026.0 |
| 20260831185322 | 23 | 151 | 4.8 | 6.4 | 0.00 | 0.00 | 0.00 | 36 | 1026.0 |
| 20260831184822 | 23 | 172 | 4.8 | 9.7 | 0.00 | 0.00 | 0.00 | 36 | 1026.0 |
| 20260831184322 | 23 | 160 | 9.7 | 12.9 | 0.00 | 0.00 | 0.00 | 36 | 1026.0 |
| 20260831183822 | 24 | 174 | 11.3 | 14.5 | 0.00 | 0.00 | 0.00 | 36 | 1026.0 |
| 20260831183325 | 24 | 138 | 6.4 | 11.3 | 0.00 | 0.00 | 0.00 | 36 | 1026.0 |
| 20260831182822 | 25 | 110 | 1.6 | 4.8 | 0.00 | 0.00 | 0.00 | 35 | 1026.0 |
| 20260831182322 | 25 | 109 | 1.6 | 4.8 | 0.00 | 0.00 | 0.00 | 34 | 1026.0 |
| 20260831181822 | 25 | 53 | 3.2 | 4.8 | 0.00 | 0.00 | 0.00 | 35 | 1026.0 |
| 20260831181322 | 24 | 302 | 0.0 | 1.6 | 0.00 | 0.00 | 0.00 | 35 | 1026.0 |
| 20260831180823 | 25 | 315 | 3.2 | 4.8 | 0.00 | 0.00 | 0.00 | 34 | 1026.0 |
| 20260831180323 | 25 | 28 | 3.2 | 4.8 | 0.00 | 0.00 | 0.00 | 36 | 1026.0 |
| 20260831175822 | 25 | 360 | 0.0 | 4.8 | 0.00 | 0.00 | 0.00 | 35 | 1026.0 |
| 20260831175323 | 25 | 2 | 3.2 | 6.4 | 0.00 | 0.00 | 0.00 | 35 | 1026.0 |
| 20260831174822 | 24 | 220 | 1.6 | 3.2 | 0.00 | 0.00 | 0.00 | 36 | 1026.0 |
| 20260831174323 | 24 | 258 | 3.2 | 6.4 | 0.00 | 0.00 | 0.00 | 35 | 1026.0 |
| 20260831173822 | 24 | 250 | 4.8 | 8.0 | 0.00 | 0.00 | 0.00 | 35 | 1026.0 |
| 20260831173323 | 24 | 316 | 6.4 | 14.5 | 0.00 | 0.00 | 0.00 | 37 | 1026.0 |
| 20260831172822 | 24 | 282 | 4.8 | 6.4 | 0.00 | 0.00 | 0.00 | 33 | 1026.0 |
| 20260831172322 | 24 | 288 | 3.2 | 4.8 | 0.00 | 0.00 | 0.00 | 36 | 1026.0 |
| 20260831171825 | 24 | 228 | 3.2 | 8.0 | 0.00 | 0.00 | 0.00 | 33 | 1026.0 |
| 20260831171322 | 24 | 307 | 4.8 | 6.4 | 0.00 | 0.00 | 0.00 | 34 | 1026.0 |
| 20260831170822 | 24 | 284 | 4.8 | 6.4 | 0.00 | 0.00 | 0.00 | 38 | 1026.0 |
| 20260831170323 | 23 | 342 | 1.6 | 3.2 | 0.00 | 0.00 | 0.00 | 37 | 1026.0 |
| 20260831165822 | 23 | 264 | 3.2 | 4.8 | 0.00 | 0.00 | 0.00 | 41 | 1026.0 |
| 20260831165323 | 23 | 162 | 1.6 | 3.2 | 0.00 | 0.00 | 0.00 | 42 | 1026.0 |
| 20260831164823 | 22 | 117 | 4.8 | 6.4 | 0.00 | 0.00 | 0.00 | 41 | 1026.0 |
| 20260831164323 | 22 | 129 | 3.2 | 8.0 | 0.00 | 0.00 | 0.00 | 43 | 1026.0 |
| 20260831163822 | 22 | 129 | 3.2 | 6.4 | 0.00 | 0.00 | 0.00 | 43 | 1026.0 |
| 20260831163322 | 22 | 123 | 4.8 | 6.4 | 0.00 | 0.00 | 0.00 | 44 | 1026.0 |
| 20260831162823 | 22 | 136 | 4.8 | 9.7 | 0.00 | 0.00 | 0.00 | 46 | 1026.0 |
| 20260831162323 | 21 | 150 | 6.4 | 8.0 | 0.00 | 0.00 | 0.00 | 46 | 1026.0 |
| 20260831161822 | 21 | 190 | 6.4 | 8.0 | 0.00 | 0.00 | 0.00 | 47 | 1026.0 |
| 20260831161323 | 21 | 167 | 6.4 | 8.0 | 0.00 | 0.00 | 0.00 | 47 | 1026.0 |
| 20260831160823 | 21 | 160 | 6.4 | 8.0 | 0.00 | 0.00 | 0.00 | 48 | 1026.0 |
| 20260831160323 | 21 | 145 | 4.8 | 8.0 | 0.00 | 0.00 | 0.00 | 51 | 1026.0 |
| 20260831155824 | 21 | 141 | 4.8 | 6.4 | 0.00 | 0.00 | 0.00 | 49 | 1026.0 |
| 20260831155327 | 21 | 127 | 4.8 | 6.4 | 0.00 | 0.00 | 0.00 | 48 | 1026.0 |
| 20260831154823 | 21 | 274 | 1.6 | 3.2 | 0.00 | 0.00 | 0.00 | 47 | 1026.0 |
| 20260831154323 | 20 | 159 | 3.2 | 4.8 | 0.00 | 0.00 | 0.00 | 50 | 1026.0 |
| 20260831153822 | 20 | 166 | 1.6 | 3.2 | 0.00 | 0.00 | 0.00 | 52 | 1026.0 |
| 20260831153323 | 19 | 70 | 1.6 | 3.2 | 0.00 | 0.00 | 0.00 | 52 | 1026.0 |
| 20260831152822 | 18 | 346 | 0.0 | 1.6 | 0.00 | 0.00 | 0.00 | 56 | 1026.0 |
| 20260831152323 | 18 | 241 | 4.8 | 6.4 | 0.00 | 0.00 | 0.00 | 60 | 1026.0 |
| 20260831151823 | 17 | 210 | 3.2 | 4.8 | 0.00 | 0.00 | 0.00 | 61 | 1026.0 |
| 20260831151323 | 17 | 209 | 3.2 | 3.2 | 0.00 | 0.00 | 0.00 | 60 | 1026.0 |
| 20260831150822 | 17 | 116 | 3.2 | 4.8 | 0.00 | 0.00 | 0.00 | 61 | 1026.0 |
| 20260831150322 | 17 | 76 | 1.6 | 3.2 | 0.00 | 0.00 | 0.00 | 62 | 1026.0 |
| 20260831145822 | 16 | 89 | 3.2 | 4.8 | 0.00 | 0.00 | 0.00 | 60 | 1026.0 |
| 20260831145322 | 16 | 195 | 1.6 | 3.2 | 0.00 | 0.00 | 0.00 | 63 | 1026.0 |
| 20260831144823 | 16 | 167 | 8.0 | 9.7 | 0.00 | 0.00 | 0.00 | 61 | 1026.0 |
| 20260831144323 | 16 | 176 | 4.8 | 6.4 | 0.00 | 0.00 | 0.00 | 61 | 1026.0 |
| 20260831143823 | 16 | 137 | 6.4 | 8.0 | 0.00 | 0.00 | 0.00 | 60 | 1026.0 |
| 20260831143322 | 16 | 156 | 12.9 | 14.5 | 0.00 | 0.00 | 0.00 | 60 | 1026.0 |
| 20260831142822 | 16 | 169 | 6.4 | 8.0 | 0.00 | 0.00 | 0.00 | 61 | 1026.0 |
| 20260831142322 | 16 | 149 | 6.4 | 9.7 | 0.00 | 0.00 | 0.00 | 62 | 1026.0 |
| 20260831141823 | 16 | 170 | 1.6 | 4.8 | 0.00 | 0.00 | 0.00 | 61 | 1026.0 |
| 20260831141322 | 16 | 158 | 3.2 | 6.4 | 0.00 | 0.00 | 0.00 | 61 | 1026.0 |
| 20260831140823 | 17 | 170 | 4.8 | 8.0 | 0.00 | 0.00 | 0.00 | 60 | 1026.0 |
| 20260831140322 | 17 | 188 | 1.6 | 3.2 | 0.00 | 0.00 | 0.00 | 59 | 1026.0 |
| 20260831135822 | 17 | 148 | 3.2 | 4.8 | 0.00 | 0.00 | 0.00 | 59 | 1026.0 |
| 20260831135323 | 16 | 164 | 1.6 | 4.8 | 0.00 | 0.00 | 0.00 | 61 | 1026.0 |
| 20260831134822 | 16 | 105 | 0.0 | 1.6 | 0.00 | 0.00 | 0.00 | 60 | 1026.0 |
| 20260831134323 | 17 | 173 | 3.2 | 3.2 | 0.00 | 0.00 | 0.00 | 59 | 1026.0 |
| 20260831133823 | 17 | 360 | 0.0 | 0.0 | 0.00 | 0.00 | 0.00 | 57 | 1026.0 |
| 20260831133323 | 17 | 34 | 0.0 | 1.6 | 0.00 | 0.00 | 0.00 | 56 | 1026.0 |
| 20260831132822 | 17 | 87 | 1.6 | 3.2 | 0.00 | 0.00 | 0.00 | 56 | 1026.0 |
| 20260831132323 | 17 | 189 | 3.2 | 4.8 | 0.00 | 0.00 | 0.00 | 53 | 1026.0 |
| 20260831131823 | 18 | 188 | 4.8 | 6.4 | 0.00 | 0.00 | 0.00 | 51 | 1026.0 |
| 20260831131322 | 18 | 278 | 3.2 | 8.0 | 0.00 | 0.00 | 0.00 | 45 | 1026.0 |
| 20260831130823 | 17 | 291 | 4.8 | 8.0 | 0.00 | 0.00 | 0.00 | 47 | 1025.0 |
| 20260831130323 | 17 | 313 | 4.8 | 8.0 | 0.00 | 0.00 | 0.00 | 50 | 1025.0 |
| 20260831125824 | 17 | 281 | 1.6 | 3.2 | 0.00 | 0.00 | 0.00 | 51 | 1025.0 |
| 20260831125322 | 17 | 267 | 3.2 | 6.4 | 0.00 | 0.00 | 0.00 | 52 | 1025.0 |
| 20260831124822 | 16 | 291 | 8.0 | 9.7 | 0.00 | 0.00 | 0.00 | 52 | 1025.0 |
| 20260831124323 | 16 | 335 | 3.2 | 4.8 | 0.00 | 0.00 | 0.00 | 51 | 1025.0 |
| 20260831123822 | 16 | 4 | 4.8 | 6.4 | 0.00 | 0.00 | 0.00 | 53 | 1025.0 |
| 20260831123322 | 16 | 12 | 4.8 | 9.7 | 0.00 | 0.00 | 0.00 | 54 | 1025.0 |
| 20260831122822 | 16 | 37 | 1.6 | 3.2 | 0.00 | 0.00 | 0.00 | 57 | 1025.0 |
| 20260831122324 | 16 | 23 | 3.2 | 6.4 | 0.00 | 0.00 | 0.00 | 57 | 1025.0 |
| 20260831121822 | 16 | 287 | 8.0 | 11.3 | 0.00 | 0.00 | 0.00 | 54 | 1025.0 |
| 20260831121322 | 16 | 281 | 6.4 | 9.7 | 0.00 | 0.00 | 0.00 | 58 | 1025.0 |
| 20260831120824 | 16 | 277 | 11.3 | 14.5 | 0.00 | 0.00 | 0.00 | 56 | 1025.0 |
| 20260831120322 | 16 | 227 | 4.8 | 9.7 | 0.00 | 0.00 | 0.00 | 54 | 1025.0 |
| 20260831115822 | 16 | 314 | 4.8 | 8.0 | 0.00 | 0.00 | 0.00 | 57 | 1025.0 |
| 20260831115323 | 16 | 280 | 3.2 | 6.4 | 0.00 | 0.00 | 0.00 | 56 | 1025.0 |
| 20260831114823 | 16 | 261 | 3.2 | 6.4 | 0.00 | 0.00 | 0.00 | 54 | 1025.0 |
| 20260831114322 | 16 | 168 | 4.8 | 6.4 | 0.00 | 0.00 | 0.00 | 56 | 1025.0 |
| 20260831113822 | 16 | 294 | 3.2 | 4.8 | 0.00 | 0.00 | 0.00 | 53 | 1025.0 |
| 20260831113324 | 16 | 225 | 1.6 | 4.8 | 0.00 | 0.00 | 0.00 | 54 | 1025.0 |
| 20260831112823 | 17 | 263 | 3.2 | 6.4 | 0.00 | 0.00 | 0.00 | 53 | 1025.0 |
| 20260831112322 | 17 | 318 | 1.6 | 4.8 | 0.00 | 0.00 | 0.00 | 51 | 1025.0 |
| 20260831111823 | 17 | 21 | 1.6 | 3.2 | 0.00 | 0.00 | 0.00 | 51 | 1025.0 |
| 20260831111322 | 17 | 319 | 3.2 | 4.8 | 0.00 | 0.00 | 0.00 | 50 | 1025.0 |
| 20260831110822 | 17 | 10 | 1.6 | 4.8 | 0.00 | 0.00 | 0.00 | 49 | 1025.0 |
| 20260831110325 | 17 | 15 | 4.8 | 8.0 | 0.00 | 0.00 | 0.00 | 50 | 1025.0 |
| 20260831105823 | 17 | 338 | 3.2 | 4.8 | 0.00 | 0.00 | 0.00 | 49 | 1025.0 |
| 20260831105322 | 18 | 5 | 1.6 | 3.2 | 0.00 | 0.00 | 0.00 | 48 | 1025.0 |
| 20260831104823 | 18 | 357 | 3.2 | 4.8 | 0.00 | 0.00 | 0.00 | 48 | 1025.0 |
| 20260831104322 | 18 | 53 | 3.2 | 6.4 | 0.00 | 0.00 | 0.00 | 48 | 1025.0 |
| 20260831103823 | 18 | 59 | 4.8 | 6.4 | 0.00 | 0.00 | 0.00 | 49 | 1025.0 |
| 20260831103323 | 18 | 60 | 1.6 | 6.4 | 0.00 | 0.00 | 0.00 | 48 | 1025.0 |
| 20260831102822 | 18 | 32 | 0.0 | 1.6 | 0.00 | 0.00 | 0.00 | 49 | 1025.0 |
| 20260831102322 | 17 | 3 | 3.2 | 3.2 | 0.00 | 0.00 | 0.00 | 49 | 1025.0 |
| 20260831101822 | 17 | 13 | 3.2 | 6.4 | 0.00 | 0.00 | 0.00 | 49 | 1024.0 |
| 20260831101322 | 17 | 18 | 1.6 | 3.2 | 0.00 | 0.00 | 0.00 | 50 | 1024.0 |
| 20260831100823 | 17 | 328 | 3.2 | 6.4 | 0.00 | 0.00 | 0.00 | 51 | 1024.0 |
| 20260831100323 | 17 | 15 | 3.2 | 4.8 | 0.00 | 0.00 | 0.00 | 49 | 1024.0 |
| 20260831095822 | 17 | 315 | 3.2 | 8.0 | 0.00 | 0.00 | 0.00 | 51 | 1024.0 |
| 20260831095322 | 17 | 272 | 3.2 | 4.8 | 0.00 | 0.00 | 0.00 | 50 | 1024.0 |
| 20260831094822 | 17 | 336 | 4.8 | 9.7 | 0.00 | 0.00 | 0.00 | 49 | 1024.0 |
| 20260831094322 | 17 | 7 | 3.2 | 6.4 | 0.00 | 0.00 | 0.00 | 50 | 1024.0 |
| 20260831093823 | 17 | 320 | 3.2 | 4.8 | 0.00 | 0.00 | 0.00 | 51 | 1024.0 |
| 20260831093322 | 17 | 323 | 4.8 | 11.3 | 0.00 | 0.00 | 0.00 | 52 | 1024.0 |
| 20260831092822 | 17 | 330 | 3.2 | 6.4 | 0.00 | 0.00 | 0.00 | 53 | 1024.0 |
| 20260831092323 | 17 | 322 | 3.2 | 6.4 | 0.00 | 0.00 | 0.00 | 56 | 1024.0 |
| 20260831091822 | 17 | 291 | 6.4 | 9.7 | 0.00 | 0.00 | 0.00 | 58 | 1024.0 |
| 20260831091323 | 17 | 282 | 6.4 | 11.3 | 0.00 | 0.00 | 0.00 | 54 | 1024.0 |
| 20260831090823 | 17 | 329 | 6.4 | 14.5 | 0.00 | 0.00 | 0.00 | 50 | 1024.0 |
| 20260831090325 | 17 | 313 | 8.0 | 11.3 | 0.00 | 0.00 | 0.00 | 51 | 1024.0 |
| 20260831085822 | 17 | 302 | 9.7 | 14.5 | 0.00 | 0.00 | 0.00 | 54 | 1024.0 |
| 20260831085323 | 17 | 327 | 6.4 | 9.7 | 0.00 | 0.00 | 0.00 | 51 | 1024.0 |
| 20260831084823 | 17 | 344 | 4.8 | 8.0 | 0.00 | 0.00 | 0.00 | 51 | 1024.0 |
| 20260831084323 | 17 | 324 | 4.8 | 8.0 | 0.00 | 0.00 | 0.00 | 52 | 1024.0 |
| 20260831083823 | 17 | 345 | 6.4 | 12.9 | 0.00 | 0.00 | 0.00 | 52 | 1024.0 |
| 20260831083322 | 17 | 323 | 3.2 | 6.4 | 0.00 | 0.00 | 0.00 | 52 | 1024.0 |
| 20260831082822 | 17 | 259 | 6.4 | 11.3 | 0.00 | 0.00 | 0.00 | 53 | 1024.0 |
| 20260831082322 | 16 | 311 | 6.4 | 9.7 | 0.00 | 0.00 | 0.00 | 57 | 1024.0 |
| 20260831081822 | 16 | 266 | 6.4 | 12.9 | 0.00 | 0.00 | 0.00 | 62 | 1025.0 |
| 20260831081323 | 16 | 292 | 8.0 | 11.3 | 0.00 | 0.00 | 0.00 | 66 | 1025.0 |
| 20260831080822 | 16 | 295 | 8.0 | 11.3 | 0.00 | 0.00 | 0.00 | 62 | 1025.0 |
| 20260831080322 | 16 | 292 | 8.0 | 11.3 | 0.00 | 0.00 | 0.00 | 60 | 1025.0 |
| 20260831075823 | 15 | 283 | 4.8 | 8.0 | 0.00 | 0.00 | 0.00 | 63 | 1025.0 |
| 20260831075323 | 15 | 315 | 3.2 | 6.4 | 0.00 | 0.00 | 0.00 | 62 | 1025.0 |
| 20260831074822 | 15 | 303 | 6.4 | 11.3 | 0.00 | 0.00 | 0.00 | 62 | 1025.0 |
| 20260831074323 | 14 | 304 | 8.0 | 11.3 | 0.00 | 0.00 | 0.00 | 67 | 1025.0 |
| 20260831073823 | 13 | 346 | 1.6 | 1.6 | 0.00 | 0.00 | 0.00 | 73 | 1025.0 |
| 20260831073322 | 14 | 300 | 3.2 | 8.0 | 0.00 | 0.00 | 0.00 | 75 | 1025.0 |
| 20260831072823 | 13 | 309 | 4.8 | 6.4 | 0.00 | 0.00 | 0.00 | 76 | 1025.0 |
| 20260831072322 | 14 | 292 | 6.4 | 8.0 | 0.00 | 0.00 | 0.00 | 76 | 1025.0 |
| 20260831071823 | 14 | 267 | 3.2 | 4.8 | 0.00 | 0.00 | 0.00 | 75 | 1025.0 |
| 20260831071323 | 14 | 250 | 4.8 | 4.8 | 0.00 | 0.00 | 0.00 | 74 | 1025.0 |
| 20260831070822 | 14 | 247 | 3.2 | 4.8 | 0.00 | 0.00 | 0.00 | 74 | 1025.0 |
| 20260831070323 | 14 | 314 | 0.0 | 1.6 | 0.00 | 0.00 | 0.00 | 73 | 1025.0 |
| 20260831065822 | 14 | 226 | 0.0 | 3.2 | 0.00 | 0.00 | 0.00 | 72 | 1025.0 |
| 20260831065322 | 14 | 2 | 1.6 | 3.2 | 0.00 | 0.00 | 0.00 | 74 | 1025.0 |
| 20260831064822 | 15 | 305 | 4.8 | 6.4 | 0.00 | 0.00 | 0.00 | 72 | 1025.0 |
| 20260831064322 | 15 | 360 | 0.0 | 0.0 | 0.00 | 0.00 | 0.00 | 72 | 1025.0 |
| 20260831063822 | 15 | 290 | 3.2 | 4.8 | 0.00 | 0.00 | 0.00 | 71 | 1025.0 |
| 20260831063323 | 15 | 68 | 1.6 | 3.2 | 0.00 | 0.00 | 0.00 | 69 | 1025.0 |
| 20260831062825 | 15 | 320 | 3.2 | 6.4 | 0.00 | 0.00 | 0.00 | 69 | 1025.0 |
| 20260831062322 | 15 | 360 | 0.0 | 0.0 | 0.00 | 0.00 | 0.00 | 66 | 1025.0 |
| 20260831061822 | 15 | 108 | 0.0 | 3.2 | 0.00 | 0.00 | 0.00 | 68 | 1025.0 |
| 20260831061322 | 15 | 132 | 0.0 | 3.2 | 0.00 | 0.00 | 0.00 | 69 | 1026.0 |
| 20260831060822 | 15 | 321 | 3.2 | 3.2 | 0.00 | 0.00 | 0.00 | 67 | 1026.0 |
| 20260831060323 | 16 | 277 | 1.6 | 3.2 | 0.00 | 0.00 | 0.00 | 67 | 1026.0 |
| 20260831055822 | 16 | 240 | 4.8 | 6.4 | 0.00 | 0.00 | 0.05 | 66 | 1026.0 |
| 20260831055322 | 16 | 283 | 0.0 | 1.6 | 0.00 | 0.00 | 0.05 | 65 | 1026.0 |
| 20260831054822 | 16 | 360 | 0.0 | 0.0 | 0.00 | 0.00 | 0.05 | 65 | 1026.0 |
| 20260831054322 | 16 | 133 | 0.0 | 1.6 | 0.00 | 0.00 | 0.05 | 65 | 1026.0 |
| 20260831053822 | 16 | 152 | 4.8 | 6.4 | 0.00 | 0.00 | 0.05 | 64 | 1026.0 |
| 20260831053323 | 16 | 215 | 3.2 | 4.8 | 0.00 | 0.00 | 0.05 | 64 | 1026.0 |
| 20260831052822 | 16 | 239 | 4.8 | 6.4 | 0.00 | 0.00 | 0.05 | 65 | 1026.0 |
| 20260831052322 | 16 | 219 | 1.6 | 1.6 | 0.00 | 0.00 | 0.05 | 66 | 1026.0 |
| 20260831051824 | 16 | 216 | 3.2 | 6.4 | 0.00 | 0.00 | 0.05 | 66 | 1026.0 |
| 20260831051322 | 16 | 193 | 3.2 | 6.4 | 0.00 | 0.00 | 0.05 | 65 | 1026.0 |
| 20260831050823 | 16 | 201 | 3.2 | 6.4 | 0.00 | 0.00 | 0.05 | 64 | 1026.0 |
| 20260831050322 | 15 | 160 | 8.0 | 12.9 | 0.00 | 0.00 | 0.05 | 64 | 1026.0 |
| 20260831045822 | 15 | 3 | 6.4 | 8.0 | 0.00 | 0.00 | 0.05 | 74 | 1026.0 |
| 20260831045322 | 15 | 78 | 1.6 | 3.2 | 0.03 | 0.00 | 0.05 | 74 | 1026.0 |
| 20260831044823 | 15 | 247 | 4.8 | 8.0 | 0.00 | 0.00 | 0.05 | 72 | 1026.0 |
| 20260831044322 | 15 | 279 | 9.7 | 14.5 | 0.00 | 0.00 | 0.05 | 71 | 1025.0 |
| 20260831043822 | 16 | 275 | 12.9 | 17.7 | 0.00 | 0.00 | 0.05 | 69 | 1025.0 |
| 20260831043322 | 15 | 269 | 16.1 | 19.3 | 0.00 | 0.00 | 0.05 | 67 | 1025.0 |
| 20260831042823 | 16 | 279 | 22.5 | 46.7 | 0.36 | 0.00 | 0.05 | 69 | 1026.0 |
| 20260831042323 | 16 | 291 | 11.3 | 16.1 | 0.00 | 0.00 | 0.05 | 62 | 1026.0 |
| 20260831041823 | 16 | 283 | 14.5 | 20.9 | 0.00 | 0.00 | 0.03 | 64 | 1026.0 |
| 20260831041322 | 16 | 283 | 17.7 | 22.5 | 0.00 | 0.00 | 0.03 | 67 | 1026.0 |
| 20260831040828 | 16 | 281 | 29.0 | 46.7 | 0.00 | 0.00 | 0.03 | 67 | 1026.0 |
| 20260831040325 | 17 | 274 | 27.4 | 48.3 | 0.10 | 0.00 | 0.03 | 64 | 1026.0 |
| 20260831035822 | 18 | 267 | 19.3 | 25.7 | 0.03 | 0.00 | 0.03 | 58 | 1025.0 |
| 20260831035322 | 18 | 277 | 20.9 | 30.6 | 0.00 | 0.00 | 0.00 | 56 | 1025.0 |
| 20260831034823 | 19 | 266 | 19.3 | 30.6 | 0.00 | 0.00 | 0.00 | 51 | 1025.0 |
| 20260831034322 | 19 | 281 | 17.7 | 25.7 | 0.00 | 0.00 | 0.00 | 50 | 1025.0 |
| 20260831033824 | 19 | 291 | 9.7 | 12.9 | 0.00 | 0.00 | 0.00 | 49 | 1026.0 |
| 20260831033322 | 19 | 245 | 0.0 | 3.2 | 0.00 | 0.00 | 0.00 | 49 | 1025.0 |
| 20260831032822 | 19 | 329 | 8.0 | 14.5 | 0.00 | 0.00 | 0.00 | 49 | 1025.0 |
| 20260831032322 | 19 | 74 | 3.2 | 6.4 | 0.00 | 0.00 | 0.00 | 48 | 1025.0 |
| 20260831031822 | 19 | 215 | 3.2 | 4.8 | 0.00 | 0.00 | 0.00 | 48 | 1025.0 |
| 20260831031322 | 19 | 37 | 6.4 | 14.5 | 0.00 | 0.00 | 0.00 | 48 | 1025.0 |
| 20260831030823 | 19 | 335 | 3.2 | 6.4 | 0.00 | 0.00 | 0.00 | 49 | 1025.0 |
| 20260831030322 | 19 | 332 | 4.8 | 6.4 | 0.00 | 0.00 | 0.00 | 49 | 1025.0 |
| 20260831025823 | 19 | 320 | 6.4 | 12.9 | 0.00 | 0.00 | 0.00 | 49 | 1025.0 |
| 20260831025323 | 19 | 344 | 4.8 | 9.7 | 0.00 | 0.00 | 0.00 | 48 | 1025.0 |
| 20260831024823 | 19 | 202 | 3.2 | 4.8 | 0.00 | 0.00 | 0.00 | 49 | 1025.0 |
| 20260831024322 | 19 | 306 | 4.8 | 9.7 | 0.00 | 0.00 | 0.00 | 49 | 1025.0 |
| 20260831023822 | 18 | 57 | 1.6 | 6.4 | 0.00 | 0.00 | 0.00 | 50 | 1024.0 |
| 20260831023322 | 18 | 46 | 3.2 | 6.4 | 0.00 | 0.00 | 0.00 | 55 | 1024.0 |
| 20260831022823 | 18 | 72 | 4.8 | 6.4 | 0.00 | 0.00 | 0.00 | 57 | 1025.0 |
| 20260831022322 | 18 | 316 | 6.4 | 9.7 | 0.00 | 0.00 | 0.00 | 50 | 1025.0 |
| 20260831021822 | 17 | 115 | 6.4 | 9.7 | 0.00 | 0.00 | 0.00 | 61 | 1025.0 |
| 20260831021322 | 17 | 16 | 3.2 | 6.4 | 0.00 | 0.00 | 0.00 | 63 | 1025.0 |
| 20260831020823 | 17 | 21 | 3.2 | 9.7 | 0.00 | 0.00 | 0.00 | 64 | 1025.0 |
| 20260831020322 | 17 | 315 | 4.8 | 6.4 | 0.00 | 0.00 | 0.00 | 66 | 1024.0 |
| 20260831015822 | 17 | 311 | 3.2 | 4.8 | 0.00 | 0.00 | 0.00 | 66 | 1024.0 |
| 20260831015323 | 17 | 315 | 0.0 | 3.2 | 0.00 | 0.00 | 0.00 | 66 | 1024.0 |
| 20260831014823 | 17 | 335 | 4.8 | 8.0 | 0.00 | 0.00 | 0.00 | 66 | 1024.0 |
| 20260831014322 | 17 | 357 | 1.6 | 3.2 | 0.00 | 0.00 | 0.00 | 65 | 1024.0 |
| 20260831013822 | 17 | 354 | 3.2 | 4.8 | 0.00 | 0.00 | 0.00 | 66 | 1024.0 |
| 20260831013322 | 17 | 335 | 1.6 | 3.2 | 0.00 | 0.00 | 0.00 | 66 | 1024.0 |
| 20260831012823 | 17 | 338 | 6.4 | 11.3 | 0.00 | 0.00 | 0.00 | 65 | 1024.0 |
| 20260831012322 | 17 | 346 | 1.6 | 4.8 | 0.00 | 0.00 | 0.00 | 65 | 1024.0 |
| 20260831011822 | 17 | 360 | 1.6 | 3.2 | 0.00 | 0.00 | 0.00 | 66 | 1024.0 |
| 20260831011323 | 17 | 336 | 3.2 | 4.8 | 0.00 | 0.00 | 0.00 | 65 | 1024.0 |
| 20260831010823 | 18 | 312 | 1.6 | 3.2 | 0.00 | 0.00 | 0.00 | 64 | 1024.0 |
| 20260831010322 | 18 | 329 | 3.2 | 4.8 | 0.00 | 0.00 | 0.00 | 63 | 1024.0 |
| 20260831005822 | 18 | 346 | 1.6 | 3.2 | 0.00 | 0.00 | 0.00 | 63 | 1024.0 |
| 20260831005322 | 18 | 348 | 3.2 | 6.4 | 0.00 | 0.00 | 0.00 | 62 | 1024.0 |
| 20260831004825 | 18 | 8 | 3.2 | 6.4 | 0.00 | 0.00 | 0.00 | 60 | 1024.0 |
| 20260831004324 | 18 | 354 | 4.8 | 9.7 | 0.00 | 0.00 | 0.00 | 62 | 1024.0 |
| 20260831003824 | 18 | 1 | 3.2 | 8.0 | 0.00 | 0.00 | 0.00 | 61 | 1024.0 |
| 20260831003323 | 18 | 343 | 1.6 | 4.8 | 0.00 | 0.00 | 0.00 | 63 | 1024.0 |
| 20260831002822 | 18 | 3 | 3.2 | 4.8 | 0.00 | 0.00 | 0.00 | 63 | 1024.0 |
| 20260831002323 | 18 | 14 | 3.2 | 8.0 | 0.00 | 0.00 | 0.00 | 62 | 1024.0 |
| 20260831001823 | 18 | 357 | 4.8 | 8.0 | 0.00 | 0.00 | 0.00 | 61 | 1024.0 |
| 20260831001322 | 18 | 347 | 6.4 | 9.7 | 0.00 | 0.00 | 0.00 | 62 | 1024.0 |
| 20260831000822 | 18 | 349 | 3.2 | 4.8 | 0.00 | 0.00 | 0.00 | 62 | 1025.0 |
| 20260831000322 | 18 | 354 | 6.4 | 11.3 | 0.00 | 0.00 | 0.00 | 63 | 1024.0 |
| 20260830235823 | 17 | 12 | 3.2 | 9.7 | 0.00 | 0.00 | 0.00 | 64 | 1024.0 |
| 20260830235323 | 17 | 344 | 4.8 | 9.7 | 0.00 | 0.00 | 0.00 | 64 | 1024.0 |
| 20260830234823 | 17 | 73 | 3.2 | 4.8 | 0.00 | 0.00 | 0.00 | 65 | 1024.0 |
| 20260830234322 | 17 | 40 | 3.2 | 4.8 | 0.00 | 0.00 | 0.00 | 65 | 1024.0 |
| 20260830233822 | 17 | 30 | 3.2 | 4.8 | 0.00 | 0.00 | 0.00 | 65 | 1025.0 |
| 20260830233322 | 17 | 280 | 3.2 | 8.0 | 0.00 | 0.00 | 0.00 | 66 | 1024.0 |
| 20260830232822 | 17 | 71 | 6.4 | 14.5 | 0.00 | 0.00 | 0.00 | 67 | 1024.0 |
| 20260830232323 | 17 | 69 | 3.2 | 8.0 | 0.00 | 0.00 | 0.00 | 69 | 1025.0 |
| 20260830231822 | 17 | 1 | 3.2 | 6.4 | 0.00 | 0.00 | 0.00 | 69 | 1025.0 |
| 20260830231322 | 17 | 360 | 3.2 | 6.4 | 0.00 | 0.00 | 0.00 | 70 | 1025.0 |
| 20260830230822 | 17 | 350 | 4.8 | 8.0 | 0.00 | 0.00 | 0.00 | 71 | 1025.0 |
| 20260830230323 | 17 | 6 | 8.0 | 12.9 | 0.00 | 0.00 | 0.00 | 71 | 1025.0 |
| 20260830225822 | 17 | 353 | 11.3 | 16.1 | 0.13 | 0.00 | 0.00 | 69 | 1024.0 |
| 20260830225322 | 17 | 353 | 9.7 | 14.5 | 0.00 | 0.00 | 0.00 | 67 | 1024.0 |
| 20260830224822 | 17 | 360 | 11.3 | 24.1 | 0.00 | 0.00 | 0.00 | 66 | 1024.0 |
| 20260830224323 | 17 | 2 | 12.9 | 27.4 | 0.00 | 0.00 | 0.00 | 67 | 1024.0 |
| 20260830223822 | 18 | 352 | 9.7 | 16.1 | 0.00 | 0.00 | 0.00 | 65 | 1024.0 |
| 20260830223322 | 18 | 359 | 12.9 | 22.5 | 0.00 | 0.00 | 0.00 | 63 | 1024.0 |
| 20260830222823 | 19 | 357 | 12.9 | 20.9 | 0.00 | 0.00 | 0.00 | 60 | 1024.0 |
| 20260830222322 | 19 | 353 | 12.9 | 17.7 | 0.00 | 0.00 | 0.00 | 57 | 1024.0 |
| 20260830221822 | 20 | 2 | 17.7 | 24.1 | 0.00 | 0.00 | 0.00 | 55 | 1024.0 |
| 20260830221322 | 21 | 354 | 11.3 | 20.9 | 0.00 | 0.00 | 0.00 | 52 | 1024.0 |
| 20260830220822 | 22 | 354 | 9.7 | 20.9 | 0.00 | 0.00 | 0.00 | 47 | 1024.0 |
| 20260830220322 | 23 | 17 | 3.2 | 3.2 | 0.00 | 0.00 | 0.00 | 45 | 1024.0 |
| 20260830215822 | 23 | 154 | 0.0 | 1.6 | 0.00 | 0.00 | 0.00 | 45 | 1023.0 |
| 20260830215322 | 23 | 221 | 1.6 | 3.2 | 0.00 | 0.00 | 0.00 | 47 | 1023.0 |
| 20260830214822 | 23 | 192 | 3.2 | 3.2 | 0.00 | 0.00 | 0.00 | 46 | 1023.0 |
| 20260830214322 | 23 | 204 | 3.2 | 4.8 | 0.00 | 0.00 | 0.00 | 45 | 1023.0 |
| 20260830213822 | 23 | 182 | 3.2 | 4.8 | 0.00 | 0.00 | 0.00 | 45 | 1023.0 |
| 20260830213323 | 23 | 185 | 3.2 | 3.2 | 0.00 | 0.00 | 0.00 | 45 | 1023.0 |
| 20260830212823 | 23 | 178 | 4.8 | 4.8 | 0.00 | 0.00 | 0.00 | 44 | 1023.0 |
| 20260830212322 | 23 | 169 | 6.4 | 8.0 | 0.00 | 0.00 | 0.00 | 42 | 1023.0 |
| 20260830211822 | 23 | 180 | 3.2 | 6.4 | 0.00 | 0.00 | 0.00 | 41 | 1023.0 |
| 20260830211322 | 24 | 190 | 4.8 | 6.4 | 0.00 | 0.00 | 0.00 | 42 | 1023.0 |
| 20260830210822 | 24 | 154 | 8.0 | 11.3 | 0.00 | 0.00 | 0.00 | 41 | 1023.0 |
| 20260830210322 | 24 | 156 | 8.0 | 11.3 | 0.00 | 0.00 | 0.00 | 40 | 1023.0 |
| 20260830205822 | 24 | 147 | 6.4 | 9.7 | 0.00 | 0.00 | 0.00 | 40 | 1023.0 |
| 20260830205323 | 25 | 154 | 8.0 | 9.7 | 0.00 | 0.00 | 0.00 | 40 | 1023.0 |
| 20260830204824 | 25 | 184 | 4.8 | 6.4 | 0.00 | 0.00 | 0.00 | 39 | 1023.0 |
| 20260830204322 | 25 | 154 | 8.0 | 12.9 | 0.00 | 0.00 | 0.00 | 39 | 1023.0 |
| 20260830203822 | 25 | 137 | 6.4 | 9.7 | 0.00 | 0.00 | 0.00 | 39 | 1023.0 |
| 20260830203322 | 25 | 144 | 8.0 | 14.5 | 0.00 | 0.00 | 0.00 | 39 | 1023.0 |
| 20260830202822 | 25 | 157 | 11.3 | 14.5 | 0.00 | 0.00 | 0.00 | 38 | 1023.0 |
| 20260830202322 | 25 | 156 | 8.0 | 9.7 | 0.00 | 0.00 | 0.00 | 38 | 1023.0 |
| 20260830201823 | 25 | 163 | 9.7 | 14.5 | 0.00 | 0.00 | 0.00 | 39 | 1023.0 |
| 20260830201322 | 25 | 153 | 12.9 | 14.5 | 0.00 | 0.00 | 0.00 | 39 | 1023.0 |
| 20260830200822 | 25 | 175 | 11.3 | 17.7 | 0.00 | 0.00 | 0.00 | 39 | 1023.0 |
| 20260830200323 | 25 | 186 | 8.0 | 12.9 | 0.00 | 0.00 | 0.00 | 38 | 1023.0 |
| 20260830195822 | 25 | 190 | 6.4 | 9.7 | 0.00 | 0.00 | 0.00 | 40 | 1023.0 |
| 20260830195322 | 25 | 177 | 8.0 | 9.7 | 0.00 | 0.00 | 0.00 | 38 | 1023.0 |
| 20260830194823 | 25 | 180 | 8.0 | 9.7 | 0.00 | 0.00 | 0.00 | 38 | 1023.0 |